Location: *
(40.7873°S, 98.7174°E)
Time: 11:47:00
(UTC+00:00)

Kosmos-1816 - Pass Details

Date: 27 June 2024
Orbit: 959 x 1007 km, 82.9° (Epoch: 23 July)

Event Time Altitude Azimuth Distance (km) Brightness Sun altitude
Rises 23:13:52 0° 33° (NNE) 3,717 9.8 -17.6°
Reaches altitude 10° 23:16:52 10° 46° (NE) 2,782 9.3 -17.0°
Maximum altitude 23:21:47 24° 96° (E) 1,974 8.4 -16.2°
Drops below altitude 10° 23:26:44 10° 147° (SSE) 2,814 8.6 -15.3°
Sets 23:29:47 0° 159° (SSE) 3,771 9.1 -14.7°
